Location: Lake Almanor
(40.2485°N, 121.1442°W)
Time: 02:29:35
(UTC-08:00)

STARLINK-1079 - Pass Details

Date: 28 January 2020
Orbit: 349 x 351 km, 53.0° (Epoch: 22 February)

Event Time Altitude Azimuth Distance (km) Brightness Sun altitude
Rises 18:28:37 0° 319° (NW) 2,171 7.1 -13.6°
Reaches altitude 10° 18:31:14 10° 345° (NNW) 1,325 5.6 -14.1°
Enters shadow 18:32:48 15° 17° (NNE) 1,077 4.8 -14.4°
